Weather in Pervushino

Russia / Kostroma Oblast     58°02′42″N   41°56′19″E
temp.,
°C
wind,
m/s
gust,
m/s
humid.,
%
clouds,
%
prec.,
mm/h
press.,
hPa
HPBL,
m
6 may, thu
thu600:00+2s229598 0.1 100953
03:00+3sse2696100 0.2 1009231
06:00+4se369426 0.0 1009208
09:00+9sse4686100 0.0 1009478
12:00+12sse41081100 0.0 1007993
15:00+16s61463100 0.8 10051921
18:00+13ssw71674100 0.7 10051693
21:00+12ssw61573100 0.8 10051617
7 may, fri
fri700:00+9ssw51191100 0.7 1005981
03:00+6sw399296 1.4 1007465
06:00+6sw41094100 0.0 1009636
09:00+8sw477312 0.0 1010805
12:00+12sw6944100 0.0 10102472
15:00+12sw5104692 0.1 10112558
18:00+12sw49501 0.1 10121842
21:00+7s387275 0.1 1014165
8 may, sat
sat800:00+6s3118154 0.0 1014264
03:00+5sse3118336 0.0 1014252
06:00+7sse41370100 0.0 1014409
09:00+12sse6115143 0.0 10121264
12:00+15sse61045100 0.0 10101929
15:00+14se71351100 0.0 10081813
18:00+10se51490100 1.3 10061077
21:00+10se51494100 2.6 1003871
9 may, sun
sun900:00+11sse51397100 3.9 10011069
03:00+6sw41195100 10.1 1003695
06:00+5sw41092100 0.9 1005798
09:00+6ssw51086100 1.0 10071127
12:00+7sw51080100 0.1 10091218
15:00+6wsw4983100 0.3 1013870
18:00+6wnw3874100 0.1 10161223
21:00+4nw31083100 0.1 1018390
10 may, mon
mon1000:00+2nw278990 0.0 1021157
03:00+1nw25940 0.0 1024108
06:00+3n25820 0.0 1026172
09:00+9n235416 0.0 1027816
12:00+12n23403 0.0 10271394
15:00+14nnw22376 0.0 10271561
18:00+13nnw125133 0.0 1028292
21:00+7nne11615 0.0 102910